TimeCDT,TemperatureF,Dew PointF,Humidity,Sea Level PressureIn,VisibilityMPH,Wind Direction,Wind SpeedMPH,Gust SpeedMPH,PrecipitationIn,Events,Conditions,WindDirDegrees,DateUTC
12:15 AM,35.6,35.6,100,29.82,0.2,WSW,6.9,-,N/A,,Overcast,240,2013-03-31 05:15:00
12:35 AM,35.6,35.6,100,29.82,0.2,WSW,6.9,-,N/A,,Overcast,250,2013-03-31 05:35:00
12:55 AM,35.6,35.6,100,29.82,0.2,West,6.9,-,N/A,,Overcast,260,2013-03-31 05:55:00
1:15 AM,35.6,35.6,100,29.82,0.2,West,5.8,-,N/A,,Overcast,260,2013-03-31 06:15:00
1:35 AM,37.4,37.4,100,29.81,0.8,West,5.8,-,N/A,,Overcast,270,2013-03-31 06:35:00
1:55 AM,37.4,37.4,100,29.81,0.2,West,5.8,-,N/A,,Overcast,270,2013-03-31 06:55:00
2:15 AM,37.4,37.4,100,29.80,0.2,WNW,5.8,-,N/A,,Overcast,290,2013-03-31 07:15:00
2:35 AM,35.6,35.6,100,29.80,0.2,West,5.8,-,N/A,,Overcast,280,2013-03-31 07:35:00
2:55 AM,35.6,35.6,100,29.80,0.2,West,6.9,-,N/A,,Overcast,270,2013-03-31 07:55:00
3:15 AM,35.6,35.6,100,29.80,0.2,West,5.8,-,N/A,,Overcast,280,2013-03-31 08:15:00
3:35 AM,35.6,35.6,100,29.79,0.2,West,8.1,-,N/A,,Overcast,280,2013-03-31 08:35:00
3:55 AM,35.6,35.6,100,29.79,0.2,WNW,9.2,-,N/A,,Overcast,290,2013-03-31 08:55:00
4:15 AM,33.8,33.8,100,29.79,0.2,West,6.9,-,N/A,,Overcast,280,2013-03-31 09:15:00
4:35 AM,33.8,33.8,100,29.78,0.5,West,6.9,-,N/A,,Overcast,280,2013-03-31 09:35:00
4:55 AM,33.8,33.8,100,29.78,0.8,West,6.9,-,N/A,,Overcast,280,2013-03-31 09:55:00
5:15 AM,33.8,33.8,100,29.78,1.0,West,8.1,-,N/A,,Overcast,280,2013-03-31 10:15:00
5:35 AM,32.0,32.0,100,29.78,1.0,West,6.9,-,N/A,,Overcast,260,2013-03-31 10:35:00
5:55 AM,32.0,32.0,100,29.77,0.5,WSW,8.1,-,N/A,,Overcast,240,2013-03-31 10:55:00
6:15 AM,32.0,32.0,100,29.76,0.2,WSW,8.1,-,N/A,,Overcast,240,2013-03-31 11:15:00
6:35 AM,32.0,32.0,100,29.77,0.2,West,10.4,-,N/A,,Overcast,260,2013-03-31 11:35:00
6:55 AM,32.0,32.0,100,29.76,0.5,West,8.1,-,N/A,,Overcast,260,2013-03-31 11:55:00
7:15 AM,32.0,32.0,100,29.76,1.0,West,9.2,-,N/A,,Overcast,270,2013-03-31 12:15:00
7:35 AM,32.0,32.0,100,29.77,0.8,West,10.4,-,N/A,,Overcast,280,2013-03-31 12:35:00
7:55 AM,32.0,32.0,100,29.77,1.2,West,9.2,-,N/A,,Overcast,280,2013-03-31 12:55:00
8:15 AM,32.0,32.0,100,29.77,1.5,West,9.2,-,N/A,,Overcast,280,2013-03-31 13:15:00
8:35 AM,32.0,32.0,100,29.77,2.0,West,9.2,-,N/A,,Overcast,280,2013-03-31 13:35:00
8:55 AM,32.0,32.0,100,29.77,2.5,West,11.5,16.1,N/A,,Overcast,270,2013-03-31 13:55:00
9:15 AM,32.0,32.0,100,29.77,2.0,WNW,11.5,-,N/A,,Overcast,290,2013-03-31 14:15:00
9:35 AM,32.0,32.0,100,29.77,1.8,West,10.4,-,N/A,,Overcast,280,2013-03-31 14:35:00
9:55 AM,32.0,32.0,100,29.77,0.8,West,9.2,-,N/A,,Overcast,270,2013-03-31 14:55:00
10:15 AM,32.0,32.0,100,29.76,0.5,West,10.4,-,N/A,,Overcast,280,2013-03-31 15:15:00
10:35 AM,32.0,32.0,100,29.77,1.0,West,10.4,19.6,N/A,,Overcast,280,2013-03-31 15:35:00
10:55 AM,32.0,32.0,100,29.77,2.0,West,13.8,19.6,N/A,,Overcast,280,2013-03-31 15:55:00
11:15 AM,32.0,32.0,100,29.78,3.0,West,13.8,19.6,N/A,,Overcast,280,2013-03-31 16:15:00
11:35 AM,33.8,33.8,100,29.77,4.0,WNW,10.4,-,N/A,,Overcast,290,2013-03-31 16:35:00
11:55 AM,33.8,33.8,100,29.78,4.0,WNW,11.5,-,N/A,,Overcast,290,2013-03-31 16:55:00
12:15 PM,33.8,33.8,100,29.78,5.0,West,12.7,18.4,N/A,,Overcast,280,2013-03-31 17:15:00
12:35 PM,33.8,32.0,93,29.78,7.0,WNW,10.4,20.7,N/A,,Overcast,290,2013-03-31 17:35:00
12:55 PM,33.8,33.8,100,29.78,5.0,West,12.7,-,N/A,,Overcast,280,2013-03-31 17:55:00
1:15 PM,33.8,32.0,93,29.79,5.0,WNW,18.4,25.3,N/A,,Overcast,290,2013-03-31 18:15:00
1:35 PM,33.8,32.0,93,29.79,5.0,WNW,15.0,19.6,N/A,,Overcast,290,2013-03-31 18:35:00
1:55 PM,33.8,32.0,93,29.79,5.0,WNW,12.7,20.7,N/A,,Overcast,290,2013-03-31 18:55:00
2:15 PM,33.8,32.0,93,29.78,7.0,WNW,13.8,17.3,N/A,,Overcast,290,2013-03-31 19:15:00
2:35 PM,35.6,32.0,87,29.78,7.0,WNW,10.4,19.6,N/A,,Overcast,300,2013-03-31 19:35:00
2:55 PM,35.6,32.0,87,29.78,7.0,WNW,10.4,-,N/A,,Overcast,290,2013-03-31 19:55:00
3:15 PM,35.6,30.2,81,29.78,10.0,WNW,16.1,24.2,N/A,,Overcast,300,2013-03-31 20:15:00
3:35 PM,35.6,30.2,81,29.78,10.0,WNW,16.1,23.0,N/A,,Overcast,300,2013-03-31 20:35:00
3:55 PM,35.6,30.2,81,29.78,10.0,WNW,18.4,24.2,N/A,,Overcast,300,2013-03-31 20:55:00
4:15 PM,35.6,30.2,81,29.79,7.0,NW,21.9,26.5,N/A,,Overcast,320,2013-03-31 21:15:00
4:35 PM,33.8,28.4,81,29.80,10.0,NW,19.6,26.5,N/A,,Overcast,310,2013-03-31 21:35:00
4:55 PM,35.6,28.4,75,29.80,10.0,WNW,11.5,19.6,N/A,,Scattered Clouds,290,2013-03-31 21:55:00
5:15 PM,35.6,28.4,75,29.80,10.0,WNW,17.3,21.9,N/A,,Mostly Cloudy,300,2013-03-31 22:15:00
5:35 PM,37.4,26.6,65,29.81,10.0,WNW,16.1,26.5,N/A,,Mostly Cloudy,290,2013-03-31 22:35:00
5:55 PM,35.6,23.0,60,29.81,10.0,NW,17.3,23.0,N/A,,Overcast,320,2013-03-31 22:55:00
6:15 PM,35.6,21.2,56,29.82,10.0,NNW,18.4,23.0,N/A,,Scattered Clouds,330,2013-03-31 23:15:00
6:35 PM,35.6,19.4,52,29.83,10.0,NW,20.7,-,N/A,,Clear,320,2013-03-31 23:35:00
7:15 PM,33.8,17.6,52,29.85,10.0,NW,12.7,-,N/A,,Clear,320,2013-04-01 00:15:00
7:35 PM,32.0,15.8,51,29.86,10.0,NW,12.7,-,N/A,,Clear,320,2013-04-01 00:35:00
7:55 PM,32.0,17.6,55,29.86,10.0,NW,12.7,-,N/A,,Clear,320,2013-04-01 00:55:00
8:15 PM,32.0,17.6,55,29.87,10.0,NW,10.4,-,N/A,,Clear,320,2013-04-01 01:15:00
8:35 PM,32.0,17.6,55,29.89,10.0,NW,16.1,21.9,N/A,,Scattered Clouds,310,2013-04-01 01:35:00
8:55 PM,32.0,17.6,55,29.89,10.0,NW,13.8,17.3,N/A,,Clear,310,2013-04-01 01:55:00
9:15 PM,32.0,17.6,55,29.90,10.0,NW,13.8,-,N/A,,Clear,320,2013-04-01 02:15:00
9:35 PM,32.0,17.6,55,29.92,10.0,NW,13.8,-,N/A,,Clear,320,2013-04-01 02:35:00
10:15 PM,32.0,15.8,51,29.93,10.0,NW,12.7,-,N/A,,Clear,320,2013-04-01 03:15:00
10:35 PM,30.2,15.8,55,29.94,10.0,NW,11.5,-,N/A,,Clear,320,2013-04-01 03:35:00
10:55 PM,30.2,17.6,60,29.94,10.0,NW,12.7,-,N/A,,Clear,320,2013-04-01 03:55:00
11:15 PM,30.2,17.6,60,29.94,10.0,NW,12.7,-,N/A,,Clear,320,2013-04-01 04:15:00
11:55 PM,30.2,17.6,60,29.95,10.0,NW,10.4,-,N/A,,Clear,320,2013-04-01 04:55:00